Weather History for Corning, AR

Change the Weather History Date:

Sunday, October 14, 2012

  Actual Average (KARG) Record (KARG)
Temperature  
Mean Temperature 66 °F -  
Max Temperature 75 °F 69 °F 82 °F (2000)
Min Temperature 57 °F 48 °F 37 °F (2002)
Cooling Degree Days 1    
Growing Degree Days 16 (Base 50)    
Moisture  
Dew Point 60 °F    
Average Humidity 78    
Maximum Humidity 100    
Minimum Humidity 50    
Precipitation  
Precipitation 0.17 in - - ()
Sea Level Pressure  
Sea Level Pressure 29.88 in    
Wind  
Wind Speed 19 mph (SW)    
Max Wind Speed 28 mph    
Max Gust Speed 41 mph    
Visibility 9 miles    
Events Rain , Thunderstorm    
Averages and records for this station are not official NWS values.
T = Trace of Precipitation, MM = Missing Value Source: NWS Daily Summary

Daily Weather History Graph

Daily Weather History Graph

Search for Another Location

Airport:

Trip Planner

Search our weather history database for the weather conditions in past years. The results will help you decide how hot, cold, wet, or windy it might be!

Date:

Astronomy

Oct. 14, 2012 Rise Set
Actual Time 7:09 AM CDT 6:27 PM CDT
Civil Twilight 6:43 AM CDT 6:52 PM CDT
Nautical Twilight 6:13 AM CDT 7:22 PM CDT
Astronomical Twilight 5:43 AM CDT 7:52 PM CDT
Moon 6:09 AM CDT (10/14) 5:47 PM CDT (10/14)
Length of Visible Light 12h 09m
Length of Day
11h 17m
Waning Crescent, 1% of the Moon is Illuminated
Oct 14
Waning Crescent
Oct 15
New
Oct 21
First Quarter
Oct 29
Full
Nov 6
Last Quarter

Hourly Weather History & Observations

Time (CDT) Temp. Dew Point Humidity Pressure Visibility Wind Dir Wind Speed Gust Speed Precip Events Conditions
12:15 AM 73.4 °F 62.6 °F 69% 29.88 in 10.0 mi South 20.7 mph 27.6 mph N/A   Unknown
12:35 AM 73.4 °F 62.6 °F 69% 29.87 in 10.0 mi South 20.7 mph 32.2 mph N/A   Unknown
12:55 AM 73.4 °F 62.6 °F 69% 29.86 in 10.0 mi South 21.9 mph 31.1 mph N/A   Unknown
1:15 AM 73.4 °F 62.6 °F 69% 29.86 in 10.0 mi South 21.9 mph 29.9 mph N/A   Unknown
1:35 AM 73.4 °F 62.6 °F 69% 29.84 in 10.0 mi South 25.3 mph 36.8 mph N/A Thunderstorm Unknown
1:55 AM 73.4 °F 62.6 °F 69% 29.88 in 10.0 mi South 18.4 mph 32.2 mph N/A   Unknown
2:15 AM 69.8 °F 64.4 °F 83% 29.90 in 2.5 mi SSW 18.4 mph 28.8 mph N/A   Haze
2:35 AM 68.0 °F 66.2 °F 94% 29.88 in 5.0 mi South 17.3 mph 24.2 mph N/A Rain Light Rain
2:55 AM 68.0 °F 66.2 °F 94% 29.93 in 0.8 mi West 27.6 mph 41.4 mph 0.11 in   Mist
3:15 AM 64.4 °F 64.4 °F 100% 29.90 in 2.5 mi South 13.8 mph 21.9 mph N/A   Mist
3:35 AM 64.4 °F 64.4 °F 100% 29.86 in 8.0 mi South 18.4 mph 21.9 mph 0.01 in Rain Light Rain
3:55 AM 64.4 °F 64.4 °F 100% 29.86 in 10.0 mi South 17.3 mph 24.2 mph 0.01 in   Unknown
4:15 AM 64.4 °F 64.4 °F 100% 29.84 in 10.0 mi SSE 17.3 mph - N/A Rain Light Rain
4:35 AM 64.4 °F 64.4 °F 100% 29.83 in 5.0 mi South 17.3 mph 23.0 mph 0.01 in Rain Light Rain
4:55 AM 66.2 °F 64.4 °F 94% 29.83 in 5.0 mi South 15.0 mph 20.7 mph 0.03 in Rain Light Rain
5:15 AM 66.2 °F 66.2 °F 100% 29.82 in 5.0 mi South 17.3 mph 23.0 mph 0.01 in Rain Light Rain
5:35 AM 66.2 °F 64.4 °F 94% 29.77 in 4.0 mi SE 24.2 mph - 0.02 in Rain Light Rain
6:15 AM 64.4 °F 64.4 °F 100% 29.78 in 10.0 mi SSE 24.2 mph 31.1 mph N/A   Unknown
6:35 AM 64.4 °F 62.6 °F 94% 29.80 in 10.0 mi South 23.0 mph 28.8 mph N/A   Unknown
6:55 AM 64.4 °F 62.6 °F 94% 29.83 in 10.0 mi South 16.1 mph 24.2 mph N/A   Unknown
7:15 AM 64.4 °F 62.6 °F 94% 29.84 in 10.0 mi South 18.4 mph 25.3 mph N/A   Unknown
7:35 AM 62.6 °F 60.8 °F 94% 29.84 in 10.0 mi South 19.6 mph 25.3 mph N/A   Unknown
7:55 AM 62.6 °F 62.6 °F 100% 29.84 in 10.0 mi SSW 17.3 mph 23.0 mph N/A   Unknown
8:15 AM 64.4 °F 62.6 °F 94% 29.85 in 10.0 mi South 19.6 mph 26.5 mph N/A   Unknown
8:35 AM 64.4 °F 62.6 °F 94% 29.86 in 10.0 mi SSW 21.9 mph 28.8 mph N/A   Unknown
8:55 AM 64.4 °F 62.6 °F 94% 29.85 in 10.0 mi SSW 27.6 mph 36.8 mph N/A   Unknown
9:15 AM 64.4 °F 62.6 °F 94% 29.86 in 10.0 mi SSW 23.0 mph 34.5 mph N/A   Unknown
9:35 AM 66.2 °F 62.6 °F 88% 29.88 in 10.0 mi SW 21.9 mph 32.2 mph N/A   Unknown
9:55 AM 66.2 °F 62.6 °F 88% 29.88 in 10.0 mi SW 23.0 mph 27.6 mph N/A   Unknown
10:15 AM 66.2 °F 62.6 °F 88% 29.88 in 10.0 mi SW 20.7 mph 26.5 mph N/A   Unknown
10:35 AM 66.2 °F 62.6 °F 88% 29.88 in 10.0 mi SW 23.0 mph 29.9 mph N/A   Unknown
10:55 AM 68.0 °F 62.6 °F 83% 29.88 in 10.0 mi SSW 23.0 mph 32.2 mph N/A   Unknown
11:15 AM 68.0 °F 62.6 °F 83% 29.88 in 10.0 mi SW 21.9 mph 31.1 mph N/A   Unknown
11:35 AM 69.8 °F 62.6 °F 78% 29.88 in 10.0 mi SW 23.0 mph 38.0 mph N/A   Unknown
11:55 AM 69.8 °F 60.8 °F 73% 29.87 in 10.0 mi SW 23.0 mph 31.1 mph N/A   Unknown
12:15 PM 71.6 °F 60.8 °F 69% 29.87 in 10.0 mi SW 23.0 mph 33.4 mph N/A   Unknown
12:35 PM 71.6 °F 60.8 °F 69% 29.85 in 10.0 mi SW 20.7 mph 33.4 mph N/A   Unknown
12:55 PM 73.4 °F 60.8 °F 65% 29.85 in 10.0 mi SW 24.2 mph 35.7 mph N/A   Unknown
1:15 PM 73.4 °F 60.8 °F 65% 29.83 in 10.0 mi SW 23.0 mph 29.9 mph N/A   Unknown
1:35 PM 73.4 °F 60.8 °F 65% 29.84 in 10.0 mi SW 21.9 mph 28.8 mph N/A   Unknown
1:55 PM 73.4 °F 59.0 °F 61% 29.84 in 10.0 mi WSW 23.0 mph 31.1 mph N/A   Unknown
2:15 PM 75.2 °F 59.0 °F 57% 29.83 in 10.0 mi SW 25.3 mph 32.2 mph N/A   Unknown
2:35 PM 75.2 °F 59.0 °F 57% 29.82 in 10.0 mi WSW 21.9 mph 32.2 mph N/A   Unknown
2:55 PM 75.2 °F 59.0 °F 57% 29.83 in 10.0 mi WSW 16.1 mph 26.5 mph N/A   Unknown
3:15 PM 73.4 °F 57.2 °F 57% 29.84 in 10.0 mi West 24.2 mph 29.9 mph N/A   Unknown
3:35 PM 75.2 °F 57.2 °F 53% 29.85 in 10.0 mi West 23.0 mph 41.4 mph N/A   Unknown
3:55 PM 75.2 °F 55.4 °F 50% 29.87 in 10.0 mi WNW 23.0 mph 32.2 mph N/A   Unknown
4:15 PM 73.4 °F 53.6 °F 50% 29.88 in 10.0 mi West 20.7 mph 32.2 mph N/A   Unknown
4:35 PM 73.4 °F 53.6 °F 50% 29.88 in 10.0 mi West 17.3 mph 27.6 mph N/A   Unknown
4:55 PM 73.4 °F 53.6 °F 50% 29.89 in 10.0 mi WNW 20.7 mph 24.2 mph N/A   Unknown
5:15 PM 73.4 °F 53.6 °F 50% 29.89 in 10.0 mi WNW 17.3 mph 29.9 mph N/A   Unknown
5:35 PM 73.4 °F 55.4 °F 53% 29.89 in 10.0 mi West 17.3 mph 21.9 mph N/A   Unknown
5:55 PM 71.6 °F 55.4 °F 57% 29.90 in 10.0 mi West 10.4 mph 19.6 mph N/A   Unknown
6:15 PM 69.8 °F 55.4 °F 60% 29.90 in 10.0 mi WNW 5.8 mph - N/A   Unknown
6:35 PM 68.0 °F 55.4 °F 64% 29.91 in 10.0 mi West 5.8 mph - N/A   Unknown
6:55 PM 66.2 °F 55.4 °F 68% 29.92 in 10.0 mi WSW 6.9 mph - N/A   Unknown
7:15 PM 64.4 °F 55.4 °F 73% 29.93 in 10.0 mi West 9.2 mph - N/A   Unknown
7:35 PM 64.4 °F 55.4 °F 73% 29.94 in 10.0 mi WSW 8.1 mph - N/A   Unknown
7:55 PM 62.6 °F 55.4 °F 77% 29.94 in 10.0 mi WSW 8.1 mph - N/A   Unknown
8:15 PM 62.6 °F 55.4 °F 77% 29.95 in 10.0 mi SW 8.1 mph - N/A   Unknown
8:35 PM 60.8 °F 55.4 °F 82% 29.96 in 10.0 mi SW 8.1 mph - N/A   Unknown
8:55 PM 59.0 °F 55.4 °F 88% 29.96 in 10.0 mi SW 8.1 mph - N/A   Unknown
9:15 PM 60.8 °F 55.4 °F 82% 29.97 in 10.0 mi WSW 8.1 mph - N/A   Unknown
9:35 PM 62.6 °F 55.4 °F 77% 29.98 in 10.0 mi WSW 6.9 mph - N/A   Unknown
9:55 PM 59.0 °F 53.6 °F 82% 29.98 in 10.0 mi West 5.8 mph - N/A   Unknown
10:15 PM 59.0 °F 53.6 °F 82% 29.98 in 10.0 mi WSW 5.8 mph - N/A   Unknown
10:35 PM 57.2 °F 53.6 °F 88% 29.99 in 10.0 mi WSW 5.8 mph - N/A   Unknown
10:55 PM 59.0 °F 53.6 °F 82% 29.99 in 10.0 mi West 5.8 mph - N/A   Unknown
11:15 PM 59.0 °F 51.8 °F 77% 29.99 in 10.0 mi West 6.9 mph - N/A   Unknown
11:35 PM 59.0 °F 51.8 °F 77% 29.99 in 10.0 mi West 6.9 mph - N/A   Unknown